Mobile Downtown, AL

1:41 AM CST on January 22, 2018 (GMT -0600)
Mobile Downtown

Weather History for KBFM - February, 2014

Change the Weather History Date:

Thursday, February 20, 2014

  Actual Average Record
Temperature  
Mean Temperature 64 °F -  
Max Temperature 68 °F 62 °F 75 °F (2017)
Min Temperature 61 °F 44 °F 30 °F (2009)
Growing Degree Days 14 (Base 50)    
Moisture  
Dew Point 62 °F    
Average Humidity 94    
Maximum Humidity 100    
Minimum Humidity 84    
Precipitation  
Precipitation 0.02 in - - ()
Sea Level Pressure  
Sea Level Pressure 29.98 in    
Wind  
Wind Speed 8 mph (SSE)    
Max Wind Speed 13 mph    
Max Gust Speed 22 mph    
Visibility 3 miles    
Events Fog , Rain    
Averages and records for this station are not official NWS values.
T = Trace of Precipitation, MM = Missing Value Source: NWS Daily Summary

Daily Weather History Graph

Daily Weather History Graph

Search for Another Location

Airport or City:

Trip Planner

Search our weather history database for the weather conditions in past years. The results will help you decide how hot, cold, wet, or windy it might be!

Date:

Astronomy

Feb. 20, 2014 Rise Set
Actual Time 6:28 AM CST 5:44 PM CST
Civil Twilight 6:03 AM CST 6:08 PM CST
Nautical Twilight 5:35 AM CST 6:36 PM CST
Astronomical Twilight 5:07 AM CST 7:04 PM CST
Moon 11:12 PM CST (2/20) 9:35 AM CST (2/20)
Length of Visible Light 12h 05m
Length of Day
11h 16m
Waning Gibbous, 70% of the Moon is Illuminated
Feb 20
Waning Gibbous
Feb 22
Last Quarter
Mar 1
New
Mar 8
First Quarter
Mar 16
Full

Hourly Weather History & Observations

Time (CST) Temp. Dew Point Humidity Pressure Visibility Wind Dir Wind Speed Gust Speed Precip Events Conditions
12:53 AM 62.1 °F 61.0 °F 96% 30.02 in 0.5 mi South 6.9 mph - N/A Fog Fog
1:08 AM 62.1 °F 61.0 °F 96% 30.02 in 0.2 mi South 6.9 mph - N/A Fog Fog
1:17 AM 62.1 °F 61.0 °F 96% 30.02 in 0.5 mi South 8.1 mph - N/A Fog Fog
1:53 AM 62.1 °F 61.0 °F 96% 30.01 in 0.5 mi SSE 5.8 mph - N/A Fog Fog
2:19 AM 61.0 °F 60.1 °F 97% 30.01 in 0.2 mi SSE 6.9 mph - N/A Fog Fog
2:53 AM 61.0 °F 60.1 °F 97% 30.00 in 0.2 mi SSE 5.8 mph - N/A Fog Fog
3:18 AM 61.0 °F 61.0 °F 100% 30.00 in 0.2 mi SSE 5.8 mph - N/A Fog Fog
3:53 AM 62.6 °F 60.8 °F 94% 29.99 in 0.2 mi SSE 6.9 mph - N/A Fog Fog
4:30 AM 62.6 °F 60.8 °F 94% 29.99 in 0.5 mi South 10.4 mph - N/A Fog Fog
4:53 AM 62.6 °F 60.8 °F 94% 29.99 in 0.5 mi South 8.1 mph - N/A Fog Fog
5:53 AM 63.0 °F 62.1 °F 97% 30.00 in 0.8 mi South 9.2 mph - N/A   Mist
6:02 AM 63.0 °F 62.1 °F 97% 30.00 in 1.2 mi SSE 10.4 mph 16.1 mph N/A   Overcast
6:53 AM 63.0 °F 62.1 °F 97% 30.00 in 1.5 mi SSE 12.7 mph 21.9 mph 0.00 in   Overcast
7:53 AM 63.0 °F 62.1 °F 97% 30.01 in 1.5 mi SSE 10.4 mph - N/A   Overcast
8:27 AM 63.0 °F 62.1 °F 97% 30.02 in 0.8 mi South 9.2 mph - N/A   Overcast
8:53 AM 63.0 °F 62.1 °F 97% 30.03 in 1.5 mi South 9.2 mph - N/A   Overcast
9:08 AM 64.0 °F 63.0 °F 96% 30.03 in 3.0 mi South 10.4 mph - N/A   Mostly Cloudy
9:25 AM 66.0 °F 63.0 °F 90% 30.03 in 9.0 mi South 9.2 mph - N/A   Mostly Cloudy
9:53 AM 66.9 °F 62.1 °F 84% 30.03 in 10.0 mi South 11.5 mph - N/A   Scattered Clouds
10:38 AM 66.0 °F 61.0 °F 84% 30.03 in 10.0 mi South 9.2 mph - N/A   Mostly Cloudy
10:53 AM 64.9 °F 62.1 °F 90% 30.03 in 10.0 mi SSE 9.2 mph - N/A   Overcast
11:53 AM 68.0 °F 63.0 °F 84% 30.01 in 10.0 mi SSE 8.1 mph 18.4 mph N/A   Overcast
12:53 PM 68.0 °F 63.0 °F 84% 30.00 in 9.0 mi SSE 12.7 mph - N/A   Overcast
1:53 PM 66.9 °F 64.9 °F 93% 29.99 in 6.0 mi South 6.9 mph - 0.01 in Rain Light Rain
2:53 PM 66.9 °F 64.0 °F 90% 29.97 in 9.0 mi SSE 9.2 mph 19.6 mph 0.00 in   Overcast
3:53 PM 66.0 °F 64.0 °F 93% 29.98 in 2.0 mi Variable 6.9 mph - 0.01 in Rain Rain
4:53 PM 64.9 °F 64.0 °F 97% 29.96 in 2.0 mi South 9.2 mph - 0.00 in   Overcast
5:00 PM 64.9 °F 64.0 °F 97% 29.96 in 4.0 mi South 9.2 mph - N/A   Overcast
5:27 PM 64.9 °F 63.0 °F 93% 29.96 in 2.0 mi South 9.2 mph - N/A   Overcast
5:53 PM 64.0 °F 63.0 °F 96% 29.95 in 2.5 mi South 8.1 mph - N/A   Overcast
6:00 PM 64.0 °F 63.0 °F 96% 29.94 in 0.5 mi SSE 10.4 mph - N/A Fog Fog
6:53 PM 64.0 °F 63.0 °F 96% 29.95 in 0.5 mi South 8.1 mph 17.3 mph N/A Fog Fog
7:53 PM 64.0 °F 63.0 °F 96% 29.95 in 0.5 mi South 6.9 mph - N/A Fog Fog
8:45 PM 63.0 °F 62.1 °F 97% 29.92 in 0.2 mi South 9.2 mph 18.4 mph 0.00 in Fog , Rain Light Rain
8:53 PM 63.0 °F 62.1 °F 97% 29.93 in 0.2 mi South 9.2 mph - 0.00 in Fog Fog
9:53 PM 64.0 °F 63.0 °F 96% 29.93 in 0.2 mi South 10.4 mph 16.1 mph N/A Fog Fog
10:00 PM 64.0 °F 63.0 °F 96% 29.93 in 0.8 mi SSE 10.4 mph 19.6 mph N/A   Mist
10:53 PM 64.0 °F 63.0 °F 96% 29.93 in 0.5 mi South 8.1 mph - N/A Fog Fog
11:42 PM 63.0 °F 63.0 °F 100% 29.93 in 0.2 mi SSW 8.1 mph 18.4 mph N/A Fog Fog
11:53 PM 64.0 °F 63.0 °F 96% 29.93 in 0.5 mi South 8.1 mph - N/A Fog Fog